TimeEST,TemperatureF,Dew PointF,Humidity,Sea Level PressureIn,VisibilityMPH,Wind Direction,Wind SpeedMPH,Gust SpeedMPH,PrecipitationIn,Events,Conditions,WindDirDegrees,DateUTC
12:12 AM,42.8,42.8,100,29.56,3.0,SW,16.1,-,N/A,,Overcast,230,2013-02-28 05:12:00
1:22 AM,41.0,41.0,100,29.57,2.5,SSW,8.1,-,N/A,,Overcast,210,2013-02-28 06:22:00
1:39 AM,41.0,41.0,100,29.57,1.5,SW,9.2,-,N/A,,Overcast,230,2013-02-28 06:39:00
1:56 AM,41.0,41.0,100,29.58,1.2,SW,10.4,-,N/A,,Overcast,220,2013-02-28 06:56:00
2:56 AM,39.9,39.9,100,29.58,1.0,South,4.6,-,N/A,,Mist,190,2013-02-28 07:56:00
3:05 AM,39.2,39.2,100,29.57,0.8,SSW,4.6,-,N/A,,Mist,200,2013-02-28 08:05:00
3:34 AM,39.2,39.2,100,29.59,2.0,SW,6.9,-,N/A,,Overcast,220,2013-02-28 08:34:00
3:44 AM,39.2,39.2,100,29.58,4.0,WSW,6.9,-,N/A,,Overcast,250,2013-02-28 08:44:00
3:56 AM,41.0,39.9,96,29.58,10.0,WSW,8.1,-,N/A,,Overcast,240,2013-02-28 08:56:00
4:09 AM,41.0,39.2,93,29.58,10.0,West,5.8,-,N/A,,Overcast,270,2013-02-28 09:09:00
4:56 AM,39.9,39.0,97,29.60,10.0,SW,11.5,-,N/A,,Overcast,230,2013-02-28 09:56:00
5:56 AM,39.0,37.9,96,29.61,10.0,SSW,4.6,-,N/A,,Overcast,200,2013-02-28 10:56:00
6:16 AM,39.2,37.4,93,29.61,10.0,WSW,8.1,-,N/A,,Overcast,240,2013-02-28 11:16:00
6:42 AM,37.4,35.6,93,29.61,10.0,SW,3.5,-,N/A,,Scattered Clouds,220,2013-02-28 11:42:00
6:56 AM,39.0,37.0,93,29.60,10.0,Calm,Calm,-,N/A,,Clear,0,2013-02-28 11:56:00
7:39 AM,41.0,37.4,87,29.61,10.0,West,5.8,-,N/A,,Mostly Cloudy,260,2013-02-28 12:39:00
7:56 AM,41.0,37.9,89,29.62,10.0,WSW,4.6,-,N/A,,Mostly Cloudy,240,2013-02-28 12:56:00
8:56 AM,41.0,39.0,93,29.64,10.0,West,4.6,-,N/A,,Mostly Cloudy,270,2013-02-28 13:56:00
9:45 AM,42.8,37.4,81,29.62,10.0,Calm,Calm,-,N/A,,Overcast,0,2013-02-28 14:45:00
9:56 AM,42.1,37.0,82,29.61,10.0,NNW,5.8,-,N/A,,Overcast,330,2013-02-28 14:56:00
10:52 AM,42.8,37.4,81,29.60,10.0,Variable,3.5,-,N/A,,Overcast,0,2013-02-28 15:52:00
10:56 AM,42.1,39.0,89,29.61,10.0,North,5.8,-,N/A,,Overcast,350,2013-02-28 15:56:00
11:56 AM,44.1,39.0,82,29.60,10.0,Calm,Calm,-,N/A,,Overcast,0,2013-02-28 16:56:00
12:41 PM,44.6,39.2,81,29.57,10.0,NNE,3.5,-,0.00,Rain,Light Rain,20,2013-02-28 17:41:00
12:56 PM,43.0,39.0,86,29.57,10.0,NNE,5.8,-,0.00,Rain,Light Rain,30,2013-02-28 17:56:00
1:56 PM,42.1,37.9,85,29.54,10.0,North,5.8,-,0.00,,Overcast,10,2013-02-28 18:56:00
2:56 PM,44.1,37.9,79,29.53,10.0,North,5.8,-,N/A,,Partly Cloudy,10,2013-02-28 19:56:00
3:56 PM,41.0,36.0,82,29.52,10.0,North,8.1,-,N/A,,Clear,10,2013-02-28 20:56:00
4:56 PM,39.9,37.0,89,29.53,10.0,NNW,3.5,-,N/A,,Mostly Cloudy,340,2013-02-28 21:56:00
5:56 PM,39.0,36.0,89,29.53,10.0,North,3.5,-,N/A,,Overcast,10,2013-02-28 22:56:00
6:56 PM,39.9,37.0,89,29.53,10.0,Calm,Calm,-,N/A,,Overcast,0,2013-02-28 23:56:00
7:56 PM,39.0,37.0,93,29.52,10.0,ENE,3.5,-,0.00,Rain,Light Rain,60,2013-03-01 00:56:00
7:59 PM,39.2,37.4,93,29.52,10.0,Calm,Calm,-,0.00,Rain,Light Rain,0,2013-03-01 00:59:00
8:56 PM,39.0,37.0,93,29.52,10.0,Calm,Calm,-,0.00,Rain,Light Rain,0,2013-03-01 01:56:00
9:56 PM,37.9,37.0,97,29.51,7.0,Calm,Calm,-,0.00,,Overcast,0,2013-03-01 02:56:00
10:56 PM,37.0,36.0,96,29.50,5.0,West,3.5,-,N/A,,Overcast,260,2013-03-01 03:56:00
11:17 PM,37.4,37.4,100,29.49,6.0,Calm,Calm,-,N/A,,Mostly Cloudy,0,2013-03-01 04:17:00
11:41 PM,37.4,37.4,100,29.49,6.0,WNW,3.5,-,N/A,,Overcast,290,2013-03-01 04:41:00
11:56 PM,37.9,37.0,97,29.49,10.0,WNW,3.5,-,N/A,,Overcast,290,2013-03-01 04:56:00